STARLINK-2719 (48677 NORAD) Tracking and Keplerian Element Data

This shows tracking and keplerian element data for the satellite.

Feedback or suggestion? Click here.




ElementValue
Catalog48677
NameSTARLINK-2719
Epoch Orbit181
Epoch Day170.58334491
Epoch Year2021
RAAN306.2596
Inclination53.048
Eccentricity0.0001596
Argument of Perigee51.0979
Mean Anonmoly74.5162
Mean Motion15.73227781
Decay Rate-6.114E-05
L11 48677U 21044AR 21170.58334491 -.00006114 00000-0 -39113-4 0 9996
L22 48677 53.0480 306.2596 0001596 51.0979 74.5162 15.73227781 1815

Live tracking and technical data element details for STARLINK-2719 (NORAD 48677). STARLINK-2719 can be tracked NOW for your location showing map with azimuth and elevation plus other details from your city location.

Track the satellite on the map from your city or location and see movement details for azimuth, elevation, latitude, longitude, range, height, and movement on the map or in text.







IsCatalogInMostPopularTable: catalog: 48677, numindb: 4
Update: records affected: 1



GetName: 48677 STARLINK-2719

Hit Count: updated at: Mon, 21 Jun 2021 04:16:19 GMT